Location: Unspecified
(48.7670°N, 0.0000°E)
Time: 04:37:26
(UTC+00:00)

AO-92 - Visible Passes

Search period start: 24 July 2019 00:00
Search period end: 03 August 2019 00:00
Orbit: 488 x 502 km, 97.5° (Epoch: 23 July)

Date Brightness Start Highest point End Pass type
(mag) Time Alt. Az. Time Alt. Az. Time Alt. Az.
24 Jul ? 21:25:28 19° SSE 21:28:00 84° ENE 21:31:39 10° NNW visible
25 Jul ? 21:04:13 16° SE 21:06:56 46° ENE 21:10:27 10° N visible
25 Jul ? 22:38:48 10° SW 22:40:51 15° W 22:42:59 10° NW visible
26 Jul ? 20:42:58 11° SE 20:45:56 28° ENE 20:49:05 10° N visible
26 Jul ? 22:17:33 16° SW 22:19:35 24° W 22:22:37 10° NW visible
27 Jul ? 20:22:33 10° ESE 20:25:01 17° ENE 20:27:28 10° NNE visible
27 Jul ? 21:56:18 21° SSW 21:58:23 42° W 22:01:52 10° NNW visible
28 Jul ? 21:35:03 23° S 21:37:14 76° WSW 21:40:53 10° NNW visible
29 Jul ? 21:13:48 20° SSE 21:16:09 60° ENE 21:19:45 10° N visible
29 Jul ? 22:48:46 10° WSW 22:50:11 12° W 22:51:35 10° WNW visible
30 Jul ? 20:52:33 15° SE 20:55:08 34° ENE 20:58:27 10° N visible
30 Jul ? 22:27:08 15° SW 22:28:52 20° W 22:31:36 10° NW visible
31 Jul ? 20:31:23 10° ESE 20:34:10 21° ENE 20:36:57 10° NNE visible
31 Jul ? 22:05:53 21° SW 22:07:39 33° W 22:10:58 10° NNW visible
01 Aug ? 21:44:39 26° S 21:46:28 59° W 21:50:04 10° NNW visible
02 Aug ? 21:23:24 26° SSE 21:25:21 77° ENE 21:28:59 10° N visible
